Wind_Speed
21 20 19 20 18 18 19 19 20 22 22 24 22 22 22 22 21 23 23 23 22 22 23 23 23 24 25 24 24 24 24 24 24 24 24 24 24 25 25 26 26 26 27 26
24 22 20 20 20 20 20 22 23 23 23 25 25 23 24 25 25 24 25 24 24 24 24 24 23 23 24 25 25 25 24 25 25 25 25 25 25 26 26 27 27 27 26 25
25 23 22 21 20 21 22 23 23 23 24 26 25 24 24 25 25 25 26 26 25 25 25 25 25 24 24 25 26 25 25 26 25 26 26 26 27 27 27 27 26 27 26 26
25 24 23 24 22 22 23 23 24 25 24 25 27 25 26 26 25 26 26 27 26 26 26 26 26 25 25 25 25 24 25 25 26 27 27 27 28 28 27 26 26 27 27 27
26 25 24 24 23 21 23 26 26 25 26 27 27 28 28 28 28 26 26 26 27 27 26 26 26 25 25 25 24 25 25 26 26 27 27 27 27 28 27 27 26 26 27 27
27 26 26 23 23 23 24 27 27 26 26 27 27 27 28 28 27 26 26 26 27 26 27 27 27 27 26 25 25 26 26 27 27 27 26 27 27 28 27 27 26 27 28 28
27 27 26 25 26 26 26 27 28 28 27 28 28 28 28 28 27 28 28 27 27 27 27 27 27 26 27 26 26 27 27 27 28 27 27 27 27 27 26 27 28 28 28 28
28 27 28 28 29 28 28 28 30 29 29 30 30 29 28 28 28 28 29 28 28 27 28 27 26 26 27 27 27 27 28 28 28 28 28 27 26 26 27 27 28 28 27 27
28 29 30 29 30 29 29 30 30 31 30 30 30 29 29 29 29 28 28 29 29 28 28 27 27 26 27 27 27 27 28 28 28 28 27 27 26 26 27 27 27 27 26 26
31 31 31 32 31 29 31 31 30 30 30 31 30 30 30 29 29 29 29 29 28 28 27 27 27 27 27 27 28 28 28 28 27 27 27 26 26 26 26 26 26 26 26 26
33 34 35 34 33 32 33 32 33 32 32 32 32 31 30 29 29 29 28 27 27 28 28 27 27 27 28 28 28 27 28 27 27 26 26 26 25 26 26 26 25 25 25 25
32 34 35 33 33 33 32 32 33 33 32 31 30 30 30 29 29 29 29 28 28 28 27 27 27 27 27 27 27 27 27 26 26 25 25 25 25 25 24 24 24 24 24 24
35 34 34 34 32 32 32 32 32 32 31 31 31 30 30 29 29 29 29 29 29 28 28 28 28 27 27 27 27 27 26 26 25 25 25 25 24 24 24 24 24 24 24 24
34 33 34 33 33 34 33 32 32 31 31 31 30 30 30 30 29 29 29 30 29 29 28 28 27 27 27 27 27 26 26 26 25 25 25 25 25 25 25 24 24 23 23 24
33 33 33 34 33 33 33 32 32 31 31 31 31 30 30 30 30 29 30 30 29 29 28 27 26 26 26 26 26 25 25 25 25 24 24 24 24 25 24 24 23 23 23 23
33 33 33 32 32 32 31 32 31 31 31 31 30 29 30 30 30 30 30 29 28 27 27 26 26 26 26 26 26 25 25 25 24 24 23 23 23 24 24 23 23 24 24 24
31 32 32 32 32 32 31 31 31 31 31 31 31 31 30 29 29 29 28 27 27 26 26 26 26 26 26 25 25 24 24 24 24 23 22 22 23 22 23 23 24 25 25 24
29 30 30 30 31 31 31 31 32 32 32 31 31 31 30 29 28 28 27 27 26 26 26 25 25 25 24 24 24 23 23 22 21 21 21 22 22 22 23 23 24 25 25 24
28 28 28 29 29 29 30 30 31 31 31 31 30 29 28 28 27 27 27 26 25 25 25 24 25 24 23 23 23 22 22 21 21 21 21 21 22 23 23 23 24 24 24 24
26 27 27 27 27 27 27 28 28 29 29 29 28 27 27 26 26 26 26 25 24 23 24 24 24 23 22 22 22 22 21 21 22 22 22 22 23 23 23 24 24 24 24 24
24 25 25 25 25 25 25 26 26 26 26 26 26 25 25 24 24 24 23 23 22 23 23 23 23 23 22 22 22 23 22 22 23 22 22 22 23 24 24 24 24 24 25 25
23 23 24 24 24 24 24 25 25 25 25 25 25 24 23 23 23 22 22 22 22 22 22 23 23 23 23 23 23 23 23 23 22 22 23 23 24 25 25 25 25 25 25 25
22 22 23 23 23 23 23 23 23 23 23 23 23 23 22 22 22 22 21 21 22 22 22 23 23 23 22 23 23 23 22 22 23 23 24 24 25 25 25 25 25 25 25 25
21 21 21 21 21 21 22 22 23 23 22 22 22 22 22 22 21 21 21 21 20 21 22 22 22 22 22 22 22 22 22 23 23 24 24 25 25 25 25 25 25 25 25 25
18 18 18 18 19 19 19 19 19 20 20 20 20 20 21 21 20 20 20 20 20 21 21 22 22 22 23 22 22 23 23 23 24 24 24 24 24 24 24 25 25 25 25 26
16 16 15 15 15 16 16 17 17 17 17 16 17 18 19 19 19 20 20 20 20 20 21 21 22 23 23 23 23 23 24 24 24 24 24 24 24 24 25 25 26 26 26 27
14 14 14 14 14 14 15 15 15 15 15 15 15 16 18 18 19 19 19 19 19 20 21 21 22 22 22 23 24 24 25 24 24 23 24 24 25 26 26 26 26 26 26 27
Wind_Direction
247 252 264 264 265 267 267 269 270 273 274 277 281 284 286 288 290 290 292 293 294 294 294 296 296 296 295 295 295 296 295 296 299 301 303 304 305 306 307 307 308 308 307 306
254 255 258 262 264 266 267 270 270 272 276 279 283 286 286 287 288 290 291 292 292 293 293 294 294 295 296 293 293 294 293 294 295 297 300 301 303 304 305 306 307 308 309 308
257 260 257 257 261 267 267 267 271 274 278 282 283 284 286 285 288 291 292 293 292 291 292 294 295 294 295 294 292 292 293 293 295 295 297 299 300 301 302 303 304 305 307 309
261 263 257 255 258 261 266 268 267 268 273 278 282 283 286 288 290 293 292 291 290 289 290 291 292 293 293 293 293 292 294 295 295 295 295 297 299 301 300 302 302 302 304 306
259 261 262 262 263 263 265 266 267 269 273 275 277 281 284 288 290 292 292 290 289 289 290 290 290 290 292 293 293 293 293 293 295 296 296 298 298 300 300 301 303 303 305 306
259 259 260 260 260 260 261 264 268 269 272 274 277 280 284 288 287 290 290 289 290 291 290 290 290 290 291 293 292 295 295 295 297 297 297 297 298 299 299 299 300 302 305 306
255 257 260 261 259 259 257 262 266 271 274 277 279 281 284 286 286 288 291 290 291 291 290 290 290 291 292 293 293 294 295 295 296 298 298 298 300 300 300 300 300 302 303 305
254 254 254 256 255 256 257 262 266 270 274 277 280 282 284 285 286 288 290 290 290 289 290 290 290 291 292 293 294 295 295 294 295 297 298 301 302 302 301 300 299 302 304 304
251 253 256 258 257 260 262 263 266 270 273 277 279 279 281 284 284 287 288 288 289 291 290 290 290 291 293 293 294 294 295 295 296 296 297 300 302 304 303 302 302 302 303 305
248 252 257 258 257 262 265 267 269 271 274 276 277 278 280 282 284 285 287 288 289 291 291 292 291 291 292 293 293 294 295 296 296 295 298 300 302 304 304 304 304 303 302 303
249 250 253 256 261 264 265 266 268 270 273 276 276 276 278 280 283 284 286 289 289 290 291 292 292 292 291 292 294 296 296 295 296 297 299 300 302 303 303 304 304 305 305 304
253 253 254 257 260 263 263 265 268 271 274 274 275 276 278 280 282 283 285 287 289 289 290 291 293 293 292 291 292 294 295 294 294 297 299 300 300 302 304 304 305 305 304 303
250 253 257 260 261 265 267 268 269 272 274 276 276 276 278 280 281 282 285 286 287 288 289 290 291 292 292 292 292 292 293 293 294 296 298 298 299 301 303 304 304 305 306 307
251 252 254 257 260 265 269 270 272 273 273 274 275 276 277 278 278 281 284 284 285 286 287 289 290 292 290 290 291 292 292 292 293 294 296 297 299 301 302 303 304 305 306 308
252 253 256 258 261 263 265 268 269 271 271 272 274 274 277 277 278 279 281 282 283 284 286 288 290 291 292 291 290 290 290 291 293 293 295 298 300 301 302 303 304 305 306 308
253 255 257 259 261 262 264 266 268 268 269 271 272 274 277 278 279 279 280 281 282 282 283 286 289 290 291 293 290 288 289 289 291 292 295 297 298 300 302 304 305 305 306 307
254 255 256 257 259 261 263 265 267 268 270 271 272 273 275 277 278 280 280 280 280 281 283 284 287 290 291 292 292 289 289 288 289 290 291 293 296 300 302 305 305 305 306 307
254 256 257 258 260 261 263 265 266 267 269 271 271 272 273 274 276 277 279 280 280 280 282 284 288 290 290 292 293 291 291 289 288 289 293 295 297 299 302 304 304 305 305 305
256 257 258 259 261 262 263 264 266 267 268 270 272 272 272 274 275 276 278 279 281 282 282 284 287 288 288 289 290 289 289 289 290 292 295 297 298 300 302 304 306 307 307 306
255 257 258 259 260 262 262 263 265 267 268 269 271 272 272 273 275 276 277 279 280 281 281 283 286 287 287 287 287 288 290 290 290 293 294 296 298 300 302 304 304 305 307 308
256 257 258 259 260 261 261 262 265 267 269 270 271 271 271 272 274 276 278 277 278 279 281 283 285 285 285 285 286 288 289 289 291 294 294 297 299 299 300 301 302 304 305 306
256 257 258 260 259 260 262 263 265 266 268 269 270 269 270 272 274 276 278 278 277 278 280 283 286 284 283 284 286 286 286 288 290 293 295 298 300 300 300 301 302 303 304 304
259 258 259 261 260 261 262 263 264 266 267 268 268 268 269 271 273 275 278 278 277 277 280 283 285 285 284 284 285 285 286 289 292 294 295 297 299 300 300 300 301 303 304 304
260 258 259 261 261 261 261 262 264 266 267 267 268 268 269 271 272 274 276 278 278 279 279 281 282 282 283 285 286 287 290 291 293 295 295 296 297 299 299 299 300 302 303 304
264 262 260 260 261 262 263 263 264 267 268 268 269 269 270 270 271 272 274 276 279 280 279 280 282 283 284 285 286 289 291 293 294 295 297 297 298 298 298 298 299 302 304 304
264 262 260 262 264 264 265 265 265 266 267 266 267 269 271 271 271 272 274 279 279 280 282 282 281 283 284 285 286 288 290 292 294 295 296 296 297 297 298 299 300 301 302 304
264 262 260 261 263 265 265 264 264 264 266 268 268 270 271 272 273 274 277 279 281 282 283 284 283 282 282 284 286 288 290 292 293 294 295 296 297 298 299 299 299 299 300 302
Height
5878 5879 5879 5880 5880 5881 5881 5880 5880 5878 5876 5873 5870 5871 5870 5868 5866 5865 5863 5862 5861 5860 5858 5856 5855 5853 5850 5848 5847 5846 5844 5843 5841 5838 5836 5834 5832 5829 5827 5824 5821 5819 5816 5813
5871 5872 5874 5875 5876 5876 5877 5876 5874 5872 5870 5868 5866 5865 5864 5863 5861 5859 5858 5857 5856 5854 5853 5851 5849 5848 5846 5844 5842 5841 5838 5837 5835 5833 5830 5828 5826 5824 5821 5818 5815 5813 5810 5807
5865 5867 5868 5870 5871 5871 5870 5869 5869 5867 5864 5862 5861 5860 5859 5857 5856 5854 5852 5851 5850 5848 5847 5845 5844 5842 5840 5838 5836 5835 5833 5831 5829 5827 5825 5822 5820 5817 5815 5812 5809 5806 5804 5801
5859 5861 5861 5864 5864 5865 5864 5863 5863 5861 5859 5857 5855 5854 5853 5851 5849 5848 5847 5845 5844 5842 5841 5839 5837 5836 5834 5832 5830 5829 5827 5825 5823 5820 5818 5816 5813 5811 5808 5805 5803 5800 5797 5794
5852 5853 5855 5855 5857 5857 5857 5856 5855 5854 5853 5851 5850 5849 5847 5845 5843 5842 5841 5839 5837 5836 5835 5833 5831 5829 5828 5826 5825 5822 5820 5818 5816 5814 5811 5809 5807 5804 5802 5799 5796 5794 5791 5788
5845 5846 5847 5849 5849 5849 5850 5849 5847 5846 5845 5844 5843 5843 5841 5839 5837 5835 5834 5833 5831 5829 5828 5827 5825 5823 5821 5819 5818 5816 5814 5811 5809 5807 5805 5802 5800 5797 5795 5792 5790 5787 5784 5781
5838 5839 5840 5841 5841 5841 5844 5841 5839 5839 5838 5837 5837 5836 5835 5833 5831 5829 5828 5826 5825 5823 5821 5820 5818 5817 5815 5813 5811 5809 5807 5805 5803 5800 5798 5795 5793 5790 5787 5785 5783 5780 5777 5774
5831 5832 5835 5832 5832 5833 5833 5833 5833 5832 5831 5831 5830 5829 5828 5827 5825 5823 5821 5819 5817 5816 5815 5814 5812 5810 5808 5806 5804 5803 5800 5798 5796 5794 5791 5789 5786 5783 5780 5778 5775 5773 5770 5767
5823 5824 5823 5822 5824 5824 5824 5825 5825 5825 5824 5824 5823 5822 5821 5820 5818 5816 5815 5813 5811 5810 5808 5807 5805 5803 5802 5800 5798 5796 5794 5792 5789 5787 5785 5782 5779 5776 5773 5771 5768 5766 5763 5761
5814 5814 5815 5815 5815 5816 5817 5817 5817 5817 5817 5817 5816 5814 5814 5813 5811 5810 5808 5806 5805 5803 5802 5800 5798 5796 5795 5793 5791 5789 5787 5785 5783 5781 5778 5776 5773 5770 5767 5764 5762 5759 5757 5754
5805 5807 5806 5806 5807 5809 5809 5809 5809 5809 5809 5808 5808 5807 5806 5805 5804 5802 5801 5798 5797 5797 5795 5793 5791 5789 5787 5786 5784 5782 5780 5778 5776 5774 5772 5769 5767 5764 5761 5758 5756 5753 5751 5748
5796 5797 5797 5798 5799 5800 5801 5801 5801 5801 5801 5800 5799 5799 5798 5797 5796 5795 5794 5793 5791 5790 5788 5786 5784 5782 5780 5779 5777 5775 5773 5771 5769 5768 5765 5763 5761 5758 5755 5752 5750 5747 5745 5742
5785 5787 5789 5790 5790 5791 5791 5792 5793 5793 5793 5792 5791 5791 5790 5789 5788 5787 5786 5786 5784 5782 5780 5779 5777 5775 5773 5772 5770 5768 5766 5764 5763 5761 5759 5757 5755 5752 5749 5747 5744 5742 5739 5736
5776 5778 5780 5781 5782 5783 5783 5783 5784 5784 5784 5784 5783 5783 5782 5782 5780 5780 5779 5777 5776 5775 5773 5771 5769 5768 5766 5765 5763 5761 5759 5757 5756 5754 5752 5751 5748 5746 5744 5741 5739 5736 5733 5730
5768 5770 5771 5772 5773 5774 5774 5775 5775 5775 5775 5775 5774 5774 5774 5774 5773 5772 5771 5769 5768 5767 5765 5764 5762 5761 5758 5757 5756 5754 5752 5751 5749 5748 5746 5744 5742 5740 5738 5735 5733 5730 5728 5725
5760 5761 5762 5763 5764 5765 5765 5766 5766 5766 5766 5766 5766 5766 5766 5766 5765 5764 5762 5762 5760 5759 5758 5757 5755 5754 5752 5751 5749 5748 5746 5744 5743 5741 5740 5738 5736 5734 5732 5730 5727 5725 5722 5720
5751 5752 5754 5755 5756 5756 5757 5757 5757 5758 5758 5758 5758 5758 5758 5757 5757 5756 5755 5754 5753 5752 5751 5750 5749 5747 5745 5744 5743 5741 5739 5738 5736 5735 5733 5732 5730 5728 5726 5724 5722 5719 5716 5714
5742 5744 5745 5746 5747 5747 5748 5749 5749 5749 5749 5750 5750 5750 5749 5749 5749 5748 5747 5746 5745 5745 5744 5743 5742 5740 5739 5737 5736 5734 5733 5731 5730 5729 5727 5726 5724 5722 5720 5718 5716 5713 5711 5708
5734 5735 5736 5737 5738 5739 5740 5740 5741 5741 5741 5741 5741 5741 5741 5741 5741 5741 5740 5739 5738 5738 5738 5736 5735 5734 5733 5731 5730 5728 5726 5725 5724 5723 5722 5720 5718 5717 5714 5712 5710 5707 5705 5702
5726 5728 5729 5730 5730 5731 5732 5732 5733 5733 5733 5733 5734 5733 5733 5734 5734 5733 5733 5732 5732 5731 5730 5729 5728 5727 5726 5725 5724 5722 5721 5720 5718 5717 5716 5714 5712 5711 5708 5706 5704 5701 5698 5696
5719 5720 5721 5722 5723 5724 5724 5725 5725 5725 5726 5726 5726 5726 5726 5726 5727 5726 5726 5726 5725 5724 5723 5722 5722 5721 5720 5719 5717 5716 5715 5713 5712 5711 5709 5708 5706 5704 5702 5699 5697 5695 5692 5689
5713 5713 5714 5715 5716 5717 5717 5718 5718 5718 5719 5719 5719 5719 5720 5720 5720 5720 5719 5719 5719 5718 5717 5716 5715 5714 5713 5712 5711 5709 5708 5707 5705 5704 5703 5701 5699 5697 5695 5693 5690 5688 5685 5683
5706 5707 5708 5708 5709 5710 5710 5711 5711 5712 5712 5712 5713 5713 5713 5714 5713 5713 5713 5713 5712 5711 5711 5710 5709 5708 5706 5705 5704 5703 5702 5700 5699 5698 5696 5694 5692 5690 5688 5686 5684 5681 5679 5676
5700 5701 5702 5702 5703 5703 5704 5704 5705 5705 5705 5706 5706 5707 5707 5707 5707 5707 5706 5706 5705 5705 5704 5703 5702 5701 5700 5699 5698 5696 5695 5694 5692 5691 5689 5687 5685 5683 5681 5679 5677 5674 5672 5669
5694 5695 5695 5696 5697 5697 5697 5698 5699 5699 5699 5699 5699 5700 5700 5700 5701 5700 5700 5700 5699 5698 5698 5697 5696 5695 5694 5693 5691 5690 5689 5687 5685 5684 5682 5680 5678 5676 5674 5672 5670 5667 5664 5662
5689 5690 5691 5691 5692 5692 5692 5693 5693 5693 5694 5693 5693 5694 5694 5694 5694 5694 5694 5693 5693 5692 5691 5691 5690 5689 5687 5686 5685 5683 5682 5680 5678 5676 5675 5673 5671 5669 5667 5664 5662 5659 5657 5654
5686 5686 5686 5687 5687 5687 5688 5688 5689 5689 5689 5689 5689 5688 5689 5689 5688 5688 5688 5688 5687 5686 5685 5684 5683 5682 5681 5679 5678 5676 5675 5673 5671 5669 5667 5665 5663 5661 5659 5657 5654 5652 5649 5647